Tracking 35275 objects as of 9-Sep-2026
HD Live streaming from Space Station
objects crossing your sky now

SL-12 R/B(AUX MOTOR)


SL-12 R/B(AUX MOTOR) is no longer on orbit


NORAD ID: 23517
Int'l Code: 1995-009G
Launch date: March 7, 1995
Source: Commonwealth of Independent States (former USSR) (CIS)
Launch site: TYURATAM MISSILE AND SPACE COMPLEX (TTMTR)
Decay date: 2001-08-06

Note: This is a ROCKET BODY
Your satellite tracking list
Your tracking list is empty




NASA's NSSDC Master Catalog

Two Line Element Set (TLE):
1 23517U 95009G   01218.68819390  .99999999  52376-5  70246-3 0  9999
2 23517 063.7239 098.5501 0200019 215.7050 143.9286 16.21006415100415
Source of the keplerian elements: AFSPC